TimeCST,TemperatureF,Dew PointF,Humidity,Sea Level PressureIn,VisibilityMPH,Wind Direction,Wind SpeedMPH,Gust SpeedMPH,PrecipitationIn,Events,Conditions,WindDirDegrees,DateUTC
12:15 AM,26.4,19.4,75,30.28,10.0,NNW,16.1,25.3,N/A,,Mostly Cloudy,330,2014-01-02 06:15:00
12:35 AM,26.4,19.4,75,30.28,10.0,NNW,11.5,20.7,N/A,,Overcast,340,2014-01-02 06:35:00
12:55 AM,25.9,19.4,76,30.28,10.0,NNW,15.0,23.0,N/A,,Overcast,340,2014-01-02 06:55:00
1:15 AM,25.3,19.4,78,30.30,10.0,NNW,17.3,28.8,N/A,,Scattered Clouds,330,2014-01-02 07:15:00
1:35 AM,24.4,18.7,79,30.31,10.0,NNW,13.8,24.2,N/A,,Clear,330,2014-01-02 07:35:00
1:55 AM,23.7,18.5,80,30.33,10.0,NNW,11.5,-,N/A,,Clear,330,2014-01-02 07:55:00
2:15 AM,23.5,18.5,81,30.34,10.0,NNW,12.7,17.3,N/A,,Clear,340,2014-01-02 08:15:00
2:35 AM,23.2,18.5,82,30.35,10.0,North,13.8,-,N/A,,Scattered Clouds,350,2014-01-02 08:35:00
2:55 AM,23.4,18.5,82,30.37,10.0,NNW,15.0,18.4,N/A,,Clear,340,2014-01-02 08:55:00
3:15 AM,23.2,18.3,82,30.38,10.0,NNW,15.0,-,N/A,,Clear,340,2014-01-02 09:15:00
3:35 AM,22.8,18.1,82,30.38,10.0,NNW,10.4,-,N/A,,Clear,340,2014-01-02 09:35:00
3:55 AM,22.5,18.0,83,30.39,10.0,NNW,11.5,18.4,N/A,,Clear,330,2014-01-02 09:55:00
4:15 AM,22.5,17.6,82,30.39,10.0,North,11.5,17.3,N/A,,Clear,350,2014-01-02 10:15:00
4:35 AM,21.9,17.4,83,30.39,10.0,NNW,9.2,-,N/A,,Clear,340,2014-01-02 10:35:00
4:55 AM,21.9,17.4,83,30.39,10.0,NNW,10.4,17.3,N/A,,Clear,340,2014-01-02 10:55:00
5:15 AM,21.6,17.1,83,30.40,10.0,NNW,6.9,-,N/A,,Clear,330,2014-01-02 11:15:00
5:35 AM,21.4,16.9,83,30.40,10.0,NNW,8.1,-,N/A,,Clear,330,2014-01-02 11:35:00
6:55 AM,21.2,15.8,80,30.43,10.0,NNW,11.5,18.4,N/A,,Clear,340,2014-01-02 12:55:00
7:55 AM,19.4,15.8,86,30.45,10.0,NW,9.2,-,N/A,,Clear,320,2014-01-02 13:55:00
8:55 AM,21.2,15.8,80,30.47,10.0,NNW,12.7,-,N/A,,Clear,340,2014-01-02 14:55:00
9:55 AM,24.8,15.8,69,30.49,10.0,North,13.8,-,N/A,,Clear,10,2014-01-02 15:55:00
10:55 AM,28.4,17.6,64,30.48,10.0,NNW,11.5,17.3,N/A,,Clear,340,2014-01-02 16:55:00
11:55 AM,32.0,17.6,55,30.46,10.0,NNW,9.2,-,N/A,,Clear,330,2014-01-02 17:55:00
12:55 PM,35.6,17.6,48,30.45,10.0,NNW,13.8,17.3,N/A,,Clear,330,2014-01-02 18:55:00
2:55 PM,39.2,17.6,42,30.42,10.0,Calm,Calm,-,N/A,,Clear,0,2014-01-02 20:55:00
3:55 PM,39.2,19.4,45,30.42,10.0,West,5.8,-,N/A,,Clear,280,2014-01-02 21:55:00
4:55 PM,39.2,19.4,45,30.42,10.0,Calm,Calm,-,N/A,,Clear,0,2014-01-02 22:55:00
6:55 PM,30.2,19.4,64,30.42,10.0,Calm,Calm,-,N/A,,Clear,0,2014-01-03 00:55:00
7:55 PM,26.6,21.2,80,30.43,10.0,Calm,Calm,-,N/A,,Clear,0,2014-01-03 01:55:00
8:55 PM,24.8,21.2,86,30.44,10.0,Calm,Calm,-,N/A,,Clear,0,2014-01-03 02:55:00
9:55 PM,23.0,19.4,86,30.45,7.0,Calm,Calm,-,N/A,,Clear,0,2014-01-03 03:55:00
10:35 PM,22.8,20.5,91,30.44,10.0,Calm,Calm,-,N/A,,Clear,0,2014-01-03 04:35:00
10:55 PM,21.2,19.4,93,30.44,10.0,Calm,Calm,-,N/A,,Clear,0,2014-01-03 04:55:00
11:15 PM,22.6,20.8,93,30.44,7.0,Calm,Calm,-,N/A,,Clear,0,2014-01-03 05:15:00
11:35 PM,22.6,20.3,91,30.44,5.0,Calm,Calm,-,N/A,,Clear,0,2014-01-03 05:35:00
11:55 PM,21.0,19.9,96,30.44,7.0,Calm,Calm,-,N/A,,Clear,0,2014-01-03 05:55:00